This demonstration page uses our WeatherBlox Daily Observations layout. Learn more.

Left ArrowRight Arrow

Hourly Observations for May 10, 2018

Temp ( °F °C ) Dew Point ( °F °C ) Humidity (%) Winds ( mph kmh ) Pressure ( in mb ) Visibility ( mi km ) Precip ( " mm )
12:51 am 00:51 Clear 71 21.7 16 -8.9 12 12 N 5 7 29.72 1006 10 16 0.00 0.00
1:51 am 01:51 Clear 72 22.2 17 -8.3 12 12 N 5 7 29.71 1006 10 16 0.00 0.00
2:51 am 02:51 Clear 66 18.9 16 -8.9 14 14 SE 5 7 29.72 1007 10 16 0.00 0.00
3:51 am 03:51 Clear 63 17.2 16 -8.9 16 16 E 6 9 29.73 1007 10 16 0.00 0.00
4:51 am 04:51 Clear 61 16.1 15 -9.4 17 17 ESE 5 7 29.74 1007 10 16 0.00 0.00
5:51 am 05:51 Sunny 63 17.2 16 -8.9 16 16 E 6 9 29.75 1007 10 16 0.00 0.00
6:51 am 06:51 Sunny 69 20.6 16 -8.9 13 13 S 3 6 29.76 1008 10 16 0.00 0.00
7:51 am 07:51 Sunny 76 24.4 18 -7.8 11 11 Calm 29.78 1008 10 16 0.00 0.00
8:51 am 08:51 Sunny 82 27.8 17 -8.3 9 9 Calm 29.78 1009 10 16 0.00 0.00
9:51 am 09:51 Sunny 87 30.6 18 -7.8 8 8 VRB 6 9 29.76 1008 10 16 0.00 0.00
10:51 am 10:51 Sunny 91 32.8 15 -9.4 6 6 Calm 29.75 1008 10 16 0.00 0.00
11:51 am 11:51 Sunny 96 35.6 14 -10 5 5 VRB 3 6 29.72 1006 10 16 0.00 0.00
12:51 pm 12:51 Sunny 97 36.1 15 -9.4 5 5 undefined N/A 29.69 1006 10 16 0.00 0.00
1:51 pm 13:51 Sunny 98 36.7 14 -10 4 4 SSW 6 9 29.66 1004 10 16 0.00 0.00
2:51 pm 14:51 Sunny 100 37.8 14 -10 4 4 NW 6 9 29.63 1003 10 16 0.00 0.00
3:51 pm 15:51 Sunny 99 37.2 9 -12.8 3 3 VRB 5 7 29.61 1003 10 16 0.00 0.00
4:51 pm 16:51 Sunny 100 37.8 10 -12.2 3 3 NW 8 13 29.59 1002 10 16 0.00 0.00
5:51 pm 17:51 Sunny 98 36.7 11 -11.7 4 4 WNW 21 33 29.58 1002 10 16 0.00 0.00
6:51 pm 18:51 Sunny 94 34.4 13 -10.6 5 5 WNW 14 22 29.59 1002 10 16 0.00 0.00
7:51 pm 19:51 Clear 90 32.2 13 -10.6 6 6 WNW 12 19 29.60 1003 10 16 0.00 0.00
8:51 pm 20:51 Clear 84 28.9 15 -9.4 7 7 NW 10 17 29.63 1003 10 16 0.00 0.00
9:51 pm 21:51 Clear 82 27.8 16 -8.9 8 8 NW 10 17 29.64 1004 10 16 0.00 0.00
10:51 pm 22:51 Clear 83 28.3 18 -7.8 9 9 NW 13 20 29.63 1004 10 16 0.00 0.00
11:51 pm 23:51 Clear 82 27.8 18 -7.8 9 9 NNW 10 17 29.64 1004 10 16 0.00 0.00

Powered by AerisWeather